Temperature
10 10 10 10 10 10 10 10 10 10 10 10 10 10 10 10 10 10 10 10 11 11 11 10 11 11 10 11 10 10 10 10 10 10 10 10 10 10 10 10 10 9 9
9 9 9 9 9 10 10 10 10 10 10 10 10 10 10 9 10 10 10 10 10 10 10 10 10 10 10 10 10 10 10 10 10 10 10 10 10 10 10 10 9 9 9
9 9 9 9 9 9 9 9 9 9 9 9 9 9 9 9 9 9 9 10 10 10 10 10 10 10 10 10 10 10 10 10 10 10 10 10 10 9 9 9 9 9 9
8 8 8 8 9 9 9 9 9 9 9 9 9 9 9 9 9 9 9 9 9 9 9 9 9 9 9 9 9 9 9 9 9 9 9 9 9 9 9 9 9 9 9
8 8 8 8 8 8 8 8 8 8 8 8 8 8 8 8 8 8 8 8 8 9 9 9 9 9 9 9 9 9 9 9 9 9 9 9 9 9 9 9 9 8 8
7 7 7 8 8 7 8 8 8 8 8 8 8 8 8 8 8 8 8 8 8 8 8 8 8 8 8 8 8 8 9 9 9 9 9 9 9 9 8 8 8 8 8
6 7 7 7 7 7 7 7 7 7 7 7 7 7 7 7 7 7 7 7 8 8 7 8 8 8 8 8 8 8 8 8 8 8 8 8 8 8 8 8 8 8 8
6 6 6 6 6 6 6 6 6 6 6 6 6 6 6 6 6 7 7 7 7 7 7 7 7 7 8 8 8 8 8 8 8 8 8 8 8 8 8 8 8 8 8
5 6 6 6 6 6 6 6 6 6 6 6 6 6 6 6 6 6 6 6 6 6 7 7 7 7 7 7 7 7 7 7 7 7 7 7 7 7 7 7 7 7 7
5 5 5 5 5 5 6 6 6 6 6 5 5 5 6 6 5 5 5 6 6 6 6 6 6 6 6 6 6 7 7 7 7 7 7 7 7 7 7 7 7 7 7
4 4 5 5 5 5 5 5 5 5 5 5 5 5 5 6 6 5 5 5 5 5 5 6 6 6 6 6 6 6 6 6 6 6 6 6 7 7 6 6 7 6 7
4 4 4 4 4 4 4 4 5 5 5 5 5 5 5 5 5 5 5 5 5 5 5 5 5 5 5 5 5 6 6 6 6 6 6 6 6 6 6 6 6 6 6
3 3 3 3 3 4 4 4 4 4 4 4 4 5 4 5 5 5 5 4 4 4 4 5 5 5 5 5 5 5 5 5 5 5 5 6 6 6 6 6 6 6 6
2 2 3 3 3 3 3 3 3 3 4 4 4 4 4 4 4 4 4 4 4 4 4 4 4 4 4 4 4 5 5 5 5 5 5 5 5 5 5 5 5 5 5
2 2 2 2 2 2 2 2 3 3 3 3 3 3 4 4 4 4 4 4 4 3 3 3 4 4 4 4 4 4 4 4 4 4 4 4 5 5 5 5 5 5 5
1 1 1 2 2 2 2 2 2 2 2 3 3 3 3 3 3 3 3 3 3 3 3 3 3 4 4 4 4 4 4 4 4 4 4 4 4 4 4 4 4 4 4
1 1 1 1 1 1 2 2 2 2 2 2 2 2 2 2 3 3 3 3 3 3 3 3 3 3 3 3 3 3 3 3 3 3 3 3 3 3 3 3 3 3 4
0 0 1 1 1 1 1 1 1 1 2 2 2 2 2 2 2 2 2 2 2 2 2 2 3 3 3 3 3 3 2 2 3 3 3 3 3 3 3 3 3 3 3
-0 -0 0 0 0 0 1 1 1 1 1 1 1 1 1 1 2 2 2 2 2 2 2 2 2 2 2 2 2 2 2 2 2 2 2 2 2 2 2 2 2 2 2
-1 -0 -0 -0 -0 -0 0 0 0 1 1 1 1 1 1 1 1 1 1 1 1 1 1 1 2 2 2 2 1 1 2 2 2 1 2 2 2 2 2 2 2 2 2
-1 -1 -1 -1 -1 -0 -0 -0 -0 0 0 0 0 0 0 1 1 1 1 1 1 1 1 1 1 1 1 1 1 1 1 1 1 1 1 1 1 1 1 1 1 1 1
-2 -2 -1 -1 -1 -1 -1 -1 -1 -1 -1 -0 -0 -0 -0 0 0 0 0 1 1 1 1 1 1 1 1 1 1 0 0 0 0 0 0 1 1 1 1 1 1 1 1
-2 -2 -2 -2 -2 -1 -1 -1 -1 -1 -1 -1 -1 -1 -1 -0 -0 -0 -0 0 0 0 0 0 0 0 0 0 0 -0 -0 -0 -1 -0 -0 -0 0 0 0 0 0 0 0
-3 -3 -2 -2 -2 -2 -2 -2 -2 -2 -2 -1 -1 -1 -1 -1 -1 -1 -0 -0 -0 0 0 -0 -0 -0 -0 -0 -0 -0 -1 -1 -1 -1 -1 -1 -1 -0 -0 -0 -0 -0 -0
-3 -3 -3 -3 -3 -3 -2 -2 -2 -2 -2 -2 -2 -2 -1 -1 -1 -1 -1 -1 -1 -1 -1 -1 -1 -1 -1 -1 -1 -1 -1 -2 -2 -2 -2 -2 -2 -1 -1 -1 -1 -1 -1
-4 -4 -4 -4 -3 -3 -3 -3 -3 -3 -3 -3 -3 -2 -2 -2 -2 -2 -2 -1 -1 -1 -1 -1 -1 -1 -1 -1 -1 -1 -2 -2 -2 -3 -2 -2 -2 -2 -2 -2 -2 -2 -2
Wind_Speed
2 2 2 2 3 3 3 3 4 4 4 5 5 4 4 4 4 5 5 7 6 5 5 7 7 6 6 6 6 7 7 7 7 7 7 7 6 6 6 6 6 6 7
2 2 2 2 2 3 3 3 4 3 3 4 4 5 4 4 3 4 4 6 7 6 5 7 7 7 6 5 4 5 6 6 7 6 6 5 5 4 4 4 4 5 5
2 2 3 2 2 3 3 3 4 3 3 3 4 4 4 4 3 4 4 3 4 5 5 6 6 5 5 5 4 4 5 5 6 5 5 5 4 4 3 3 3 3 3
3 2 3 2 2 3 3 3 3 3 3 3 3 3 3 3 3 3 3 3 3 3 4 5 5 5 4 4 3 3 4 5 5 5 4 4 3 2 2 1 2 2 2
2 2 2 2 3 2 2 3 3 3 3 3 3 3 2 2 2 3 3 2 3 3 3 4 5 5 4 4 3 2 3 4 5 4 4 3 2 2 1 1 1 1 0
1 2 2 3 3 3 2 3 3 3 3 3 3 2 2 2 2 2 2 2 2 3 3 2 3 3 3 3 3 3 1 3 4 4 4 3 2 1 1 0 1 2 2
1 2 3 3 3 3 3 4 4 4 3 3 3 2 2 2 2 1 1 2 2 2 2 1 1 1 1 2 2 2 1 1 3 4 4 3 2 1 1 1 1 1 2
1 2 3 3 3 3 3 4 4 4 3 3 3 4 2 2 2 1 1 1 1 1 1 0 0 1 1 1 1 2 1 0 1 2 3 3 3 2 1 1 1 2 2
1 1 2 3 3 3 3 5 5 5 5 4 3 3 3 3 2 2 2 2 1 1 1 1 1 1 1 1 0 1 2 2 1 1 2 3 3 3 3 2 2 2 3
1 2 3 3 3 3 3 4 5 5 6 5 4 2 2 1 2 2 3 3 2 2 2 1 2 2 2 1 1 1 2 2 3 3 2 3 3 3 3 3 4 4 4
2 2 2 3 3 3 3 4 4 6 6 6 4 3 3 3 3 3 3 3 2 2 2 2 3 2 2 2 2 1 1 2 3 4 4 4 4 4 3 3 5 4 4
2 2 2 2 3 3 4 4 4 5 5 6 5 4 4 3 4 3 3 4 3 2 2 2 3 3 2 3 3 2 2 3 4 5 5 5 5 5 4 4 4 4 4
2 3 2 3 3 3 4 4 4 4 5 6 6 5 4 4 3 3 3 3 3 2 2 3 3 2 2 3 2 3 2 2 4 5 6 6 6 6 6 5 5 5 5
3 3 3 4 4 4 4 3 4 4 4 5 6 6 5 4 3 3 3 3 3 2 3 4 2 3 2 3 3 3 3 3 4 5 6 6 6 6 5 5 5 5 5
3 4 4 4 4 4 4 4 4 4 5 5 5 6 5 4 4 4 3 4 4 4 4 4 2 3 4 4 4 4 5 4 5 5 6 5 5 5 5 5 5 5 5
4 4 4 4 4 4 5 5 5 5 5 5 4 5 5 5 5 4 4 4 4 4 4 3 3 3 4 4 5 5 5 5 6 6 6 5 5 5 5 5 6 6 6
4 5 5 5 5 5 5 5 5 5 5 5 4 5 5 5 5 5 5 4 4 4 5 3 3 3 4 5 4 5 5 5 5 6 7 6 6 6 6 6 7 8 7
4 4 4 5 5 6 6 6 6 6 6 6 6 5 6 5 6 5 5 5 5 5 5 4 3 3 5 5 5 5 5 5 5 6 7 8 8 8 8 8 7 8 8
3 4 4 5 5 5 6 7 7 7 7 7 6 7 6 6 6 5 6 6 5 4 4 4 4 3 3 4 5 4 5 5 5 5 7 8 8 8 8 8 8 8 9
3 4 4 5 5 6 6 6 6 6 7 7 7 7 7 7 8 7 6 6 5 5 4 4 4 3 3 4 4 4 4 4 4 4 5 6 7 8 8 9 9 9 9
4 4 4 4 5 5 5 6 6 6 7 7 7 7 7 7 8 7 6 7 7 6 5 5 4 4 4 4 5 4 4 3 4 3 4 4 4 4 5 7 7 7 7
4 4 4 4 4 4 5 6 7 7 7 7 7 7 7 7 8 8 8 8 8 8 7 6 5 6 6 5 4 4 4 3 4 2 3 4 4 4 5 5 6 7 7
4 4 4 4 5 5 6 7 8 7 7 7 7 7 6 6 7 7 7 7 7 9 9 8 8 8 7 6 6 6 6 6 5 3 4 5 4 5 5 5 6 7 7
3 4 4 5 5 5 6 7 7 7 6 6 7 7 7 6 6 6 6 6 7 7 8 8 8 8 7 7 7 7 6 5 4 3 4 5 4 4 4 5 6 7 8
4 4 4 5 5 5 5 6 6 5 5 6 6 7 7 7 7 7 6 6 6 6 6 8 8 8 8 8 7 5 5 5 5 4 3 4 4 4 4 5 5 6 7
4 4 4 4 5 5 5 5 6 4 5 5 5 6 7 7 7 8 7 6 7 6 5 4 5 5 6 7 8 7 6 6 4 4 3 3 3 3 3 3 3 4 5
Wind_Direction
134 134 130 135 129 122 131 132 131 131 136 143 144 139 127 122 118 116 111 92 86 93 105 114 113 123 125 123 118 125 120 118 115 112 107 105 97 89 87 84 77 74 72
139 147 142 142 133 128 141 152 139 138 135 140 139 136 128 119 118 116 116 108 86 80 98 103 102 104 107 121 130 135 135 131 119 112 116 112 106 98 89 84 80 73 69
125 149 149 147 143 143 147 147 136 132 126 135 141 135 128 122 123 118 117 118 106 87 85 98 102 100 100 100 118 136 145 138 133 130 122 114 114 107 99 95 91 82 73
129 132 147 145 148 145 142 143 141 137 131 140 145 138 132 125 125 122 117 113 107 103 91 82 85 91 94 89 91 124 150 151 143 137 135 132 121 125 119 115 105 87 84
127 136 133 141 152 146 144 151 147 149 142 139 142 141 140 136 128 122 118 109 103 98 92 84 78 68 70 67 66 113 143 155 158 156 152 144 136 139 140 125 187 216 243
99 132 137 138 147 153 158 163 157 150 150 144 139 140 136 138 127 118 122 119 109 104 95 93 95 74 59 53 44 48 128 159 165 166 164 156 153 158 196 237 273 254 257
109 138 145 145 142 164 173 170 160 152 143 149 149 144 137 138 141 128 134 129 110 109 104 88 74 71 88 69 31 17 14 134 177 184 186 177 178 187 216 258 294 291 266
134 142 149 156 154 165 173 171 164 161 158 164 173 169 176 186 181 187 180 155 133 125 118 93 48 335 300 246 17 3 347 313 206 188 191 197 201 213 235 254 290 303 298
134 139 157 159 164 174 179 179 176 171 176 180 186 192 192 201 181 191 198 194 190 201 205 214 260 270 281 298 282 341 353 339 306 282 225 214 218 233 251 260 272 287 293
168 165 172 170 167 175 190 188 184 182 182 188 195 226 242 174 185 185 201 209 222 236 234 237 241 247 258 265 288 345 349 332 307 292 281 258 251 248 252 260 267 273 277
189 177 178 176 180 187 198 196 187 189 189 193 196 204 213 203 197 200 207 205 218 240 244 242 230 233 244 254 251 279 281 290 297 293 288 277 266 270 276 274 270 273 275
191 178 187 186 192 195 203 205 196 195 197 198 199 199 206 209 203 206 214 210 216 234 243 239 231 231 237 247 254 270 252 260 276 281 280 281 275 268 268 273 278 280 282
212 196 194 199 204 206 208 211 204 201 202 203 204 206 211 226 222 213 202 208 226 238 239 231 228 231 237 247 252 267 250 262 280 278 275 275 279 274 263 261 272 283 287
217 212 204 206 210 211 210 212 206 204 205 209 211 210 211 219 223 217 205 202 217 236 235 234 228 223 239 255 274 261 255 261 279 285 277 273 277 279 266 256 264 276 283
215 211 215 214 213 210 206 208 211 211 207 211 218 215 213 217 225 227 216 206 212 229 235 227 225 231 244 247 258 259 260 257 260 269 273 272 277 270 268 256 251 262 275
220 213 218 222 217 210 207 210 213 217 214 214 220 220 219 218 220 226 221 220 227 234 239 229 243 248 242 249 251 254 263 256 241 248 255 259 262 263 263 266 256 251 257
221 218 217 222 216 212 210 216 218 214 216 218 222 225 224 221 222 224 221 221 224 228 239 248 254 250 241 247 249 252 255 252 243 242 244 247 250 254 258 263 264 254 250
223 222 220 219 219 218 215 217 220 217 216 220 222 226 229 222 229 228 221 222 224 229 233 236 249 250 248 241 240 243 247 249 250 250 244 246 248 252 255 258 262 261 252
229 226 223 222 220 221 221 222 222 220 221 224 226 226 230 226 230 236 229 226 227 230 233 227 237 253 260 242 237 246 247 249 253 253 250 247 248 249 249 250 253 262 259
233 230 229 228 226 224 224 224 225 224 227 230 231 231 229 230 230 236 235 230 226 227 228 225 231 243 252 247 236 241 251 257 260 257 256 252 251 250 250 252 254 257 261
239 234 232 234 231 230 227 224 226 227 229 232 235 234 233 236 238 236 236 232 223 223 224 226 230 237 243 236 236 244 252 263 266 265 263 253 248 249 251 257 260 261 264
240 236 235 234 234 236 233 227 229 230 231 231 235 237 236 235 240 242 246 242 233 223 223 229 236 233 237 238 238 237 238 256 265 258 267 269 257 260 253 257 261 263 266
244 239 241 239 239 244 238 230 228 230 234 236 237 236 235 235 237 239 242 239 240 237 233 232 233 238 237 229 227 230 233 243 257 254 260 264 262 262 257 258 262 264 266
248 245 244 242 243 246 242 236 232 232 236 239 241 240 235 235 234 237 238 235 238 238 235 234 235 236 238 228 226 233 239 251 268 249 248 260 267 271 269 258 262 267 265
250 248 248 243 241 243 237 237 236 235 238 242 246 246 241 237 234 238 232 231 240 247 249 245 246 240 231 228 224 221 223 230 253 255 249 255 269 280 278 272 265 263 265
253 253 253 252 250 252 246 240 237 234 238 246 249 249 244 243 241 240 234 227 234 241 237 241 243 236 226 215 213 216 217 222 241 251 233 236 259 273 273 266 265 264 267
Height
1527 1528 1529 1531 1532 1534 1536 1538 1539 1541 1542 1544 1545 1546 1547 1549 1550 1550 1551 1552 1553 1553 1554 1554 1555 1555 1556 1556 1556 1557 1557 1557 1557 1557 1557 1557 1558 1558 1557 1557 1557 1557 1557
1524 1525 1527 1528 1530 1532 1533 1535 1537 1539 1540 1542 1544 1545 1546 1547 1548 1549 1550 1551 1552 1552 1553 1553 1554 1555 1555 1555 1556 1556 1556 1557 1557 1557 1557 1557 1557 1557 1557 1557 1557 1557 1557
1521 1523 1524 1526 1527 1529 1531 1533 1535 1537 1538 1540 1542 1543 1545 1546 1547 1548 1549 1550 1551 1551 1552 1552 1553 1554 1554 1555 1555 1555 1556 1556 1556 1556 1556 1556 1556 1557 1557 1556 1556 1556 1556
1519 1521 1522 1523 1525 1527 1529 1531 1532 1534 1536 1538 1540 1541 1543 1544 1546 1547 1548 1549 1549 1550 1551 1551 1552 1552 1553 1554 1554 1554 1554 1555 1555 1555 1555 1556 1556 1556 1556 1556 1556 1556 1556
1516 1518 1519 1521 1523 1525 1527 1529 1530 1532 1534 1536 1538 1540 1541 1542 1544 1545 1546 1547 1548 1548 1549 1550 1550 1551 1551 1552 1552 1552 1553 1553 1553 1554 1554 1554 1555 1554 1554 1554 1554 1554 1554
1513 1515 1516 1518 1520 1522 1524 1526 1528 1530 1532 1534 1535 1537 1539 1541 1542 1543 1544 1545 1546 1547 1548 1548 1549 1549 1550 1550 1551 1551 1551 1551 1552 1552 1552 1553 1553 1553 1553 1553 1553 1553 1553
1511 1512 1513 1515 1517 1520 1522 1523 1525 1527 1529 1531 1534 1535 1537 1539 1540 1541 1542 1543 1544 1545 1546 1547 1547 1547 1548 1548 1549 1549 1549 1549 1550 1550 1551 1551 1551 1551 1551 1551 1551 1551 1551
1508 1509 1510 1512 1514 1516 1519 1521 1522 1524 1526 1528 1531 1533 1535 1538 1538 1539 1540 1541 1542 1543 1544 1544 1545 1545 1545 1546 1546 1547 1547 1547 1548 1548 1549 1549 1549 1549 1549 1549 1549 1549 1549
1505 1506 1507 1509 1511 1513 1515 1517 1519 1521 1523 1526 1528 1530 1532 1532 1534 1536 1537 1538 1539 1540 1541 1542 1542 1543 1543 1543 1543 1544 1544 1545 1545 1545 1546 1546 1546 1547 1547 1547 1547 1546 1546
1501 1503 1504 1506 1507 1510 1512 1514 1516 1518 1520 1522 1525 1526 1528 1528 1531 1532 1534 1535 1536 1537 1538 1538 1539 1540 1540 1540 1541 1541 1541 1542 1542 1543 1543 1544 1544 1544 1544 1544 1544 1544 1543
1498 1500 1501 1503 1504 1506 1508 1510 1512 1514 1516 1519 1520 1522 1524 1526 1527 1528 1530 1532 1533 1534 1535 1535 1536 1537 1537 1537 1538 1538 1538 1539 1540 1540 1540 1541 1541 1540 1541 1541 1541 1541 1541
1495 1496 1498 1499 1501 1503 1504 1507 1509 1511 1513 1515 1517 1519 1521 1522 1523 1525 1526 1527 1529 1530 1531 1532 1533 1534 1534 1534 1535 1535 1535 1536 1536 1536 1537 1537 1537 1537 1537 1537 1537 1537 1537
1491 1492 1494 1495 1497 1499 1501 1503 1505 1507 1509 1511 1513 1515 1517 1519 1521 1522 1523 1524 1525 1526 1528 1529 1529 1530 1530 1531 1531 1531 1532 1532 1532 1533 1533 1533 1533 1533 1533 1533 1533 1533 1533
1488 1489 1490 1492 1494 1496 1497 1499 1501 1503 1506 1508 1510 1512 1513 1515 1517 1518 1520 1521 1522 1523 1524 1525 1525 1526 1526 1527 1527 1527 1527 1528 1528 1528 1528 1528 1529 1529 1529 1529 1529 1529 1529
1485 1486 1487 1489 1490 1492 1494 1495 1498 1500 1502 1504 1506 1508 1510 1511 1513 1514 1516 1518 1519 1519 1520 1520 1521 1521 1522 1523 1523 1523 1524 1524 1524 1524 1524 1524 1524 1525 1525 1525 1525 1525 1525
1481 1482 1484 1485 1487 1489 1491 1492 1494 1496 1498 1500 1502 1504 1505 1507 1509 1510 1512 1513 1515 1516 1515 1515 1516 1517 1518 1519 1519 1519 1520 1520 1520 1520 1520 1520 1520 1520 1520 1520 1520 1520 1520
1477 1478 1480 1482 1483 1485 1487 1488 1490 1492 1494 1496 1498 1499 1501 1503 1504 1506 1507 1508 1510 1511 1511 1511 1512 1513 1514 1515 1515 1515 1516 1515 1515 1516 1516 1516 1516 1515 1515 1515 1515 1516 1516
1473 1474 1476 1478 1480 1481 1483 1484 1487 1488 1490 1492 1494 1495 1497 1498 1500 1501 1502 1504 1505 1506 1508 1507 1508 1509 1509 1510 1511 1511 1511 1511 1511 1511 1511 1511 1511 1511 1510 1510 1510 1511 1511
1469 1471 1472 1474 1476 1478 1479 1481 1482 1484 1486 1487 1489 1491 1492 1493 1495 1496 1497 1499 1500 1502 1503 1503 1503 1504 1505 1506 1506 1506 1507 1506 1506 1506 1506 1506 1506 1506 1506 1506 1506 1505 1505
1465 1466 1468 1470 1472 1473 1475 1477 1478 1479 1481 1483 1485 1486 1487 1489 1490 1491 1492 1494 1496 1497 1498 1499 1499 1500 1500 1501 1501 1502 1502 1502 1502 1502 1502 1501 1501 1501 1501 1501 1500 1500 1500
1462 1462 1464 1465 1467 1469 1470 1472 1474 1475 1477 1478 1480 1481 1482 1484 1485 1487 1488 1490 1491 1492 1494 1494 1494 1495 1496 1496 1497 1497 1497 1497 1497 1497 1497 1496 1497 1496 1496 1496 1495 1495 1494
1457 1459 1460 1461 1463 1464 1466 1468 1469 1471 1472 1473 1474 1476 1477 1479 1480 1481 1483 1485 1486 1487 1488 1489 1489 1490 1491 1492 1492 1493 1493 1493 1492 1493 1492 1492 1492 1491 1491 1491 1490 1490 1489
1454 1455 1456 1457 1458 1460 1461 1463 1464 1466 1467 1468 1470 1471 1472 1473 1474 1476 1477 1479 1480 1482 1483 1484 1484 1485 1486 1487 1488 1488 1488 1488 1487 1488 1488 1486 1487 1486 1486 1486 1485 1485 1484
1450 1451 1452 1453 1454 1455 1457 1458 1460 1461 1462 1464 1465 1466 1467 1468 1469 1471 1472 1473 1474 1476 1477 1479 1480 1480 1481 1482 1483 1483 1483 1483 1483 1483 1483 1482 1482 1481 1481 1481 1480 1479 1479
1447 1448 1449 1449 1450 1451 1452 1454 1455 1456 1457 1459 1460 1461 1462 1463 1464 1466 1467 1467 1469 1470 1471 1473 1474 1475 1475 1476 1477 1478 1478 1478 1477 1477 1478 1478 1477 1476 1476 1475 1475 1474 1474
1444 1444 1445 1445 1446 1447 1448 1449 1451 1452 1453 1454 1455 1456 1457 1458 1460 1461 1462 1463 1463 1464 1466 1467 1468 1469 1469 1470 1471 1472 1473 1473 1472 1472 1472 1473 1472 1472 1471 1470 1470 1469 1469